User: anonymous   Login
Location: Unspecified
(0.0000°N, 0.0000°E)
Time: 23:21:34
(UTC+00:00)
Language:

OPTUS D2 - Orbit

View from above orbital plane
View from above orbital plane
View from above satellite
View from above satellite

Ground track
Ground track

The orbit data is extracted from the following two-line orbital elements,

1 32252U 07044A   16237.83626765  .00000000  00000-0  10000-3 0  9995
2 32252   0.0188   6.9762 0003598 151.0649 268.5001  1.00265656 32518
Epoch (UTC): 24 August 2016 20:04:13
Eccentricity: 0.0003598
inclination: 0.0188°
perigee height: 35773 km
apogee height: 35803 km
right ascension of ascending node: 6.9762°
argument of perigee: 151.0649°
revolutions per day: 1.00265656
mean anomaly at epoch: 268.5001°
orbit number at epoch: 3251

The dashed part of the orbit path shows where the satellite is in the earth's shadow,  

DLR